Weather History for Beaufort, NC

Change the Weather History Date:

Friday, September 2, 2011

  Actual Average Record
Temperature  
Mean Temperature 75 °F -  
Max Temperature 82 °F 85 °F 90 °F (1950)
Min Temperature 68 °F 69 °F 56 °F (1967)
Cooling Degree Days 10    
Growing Degree Days 25 (Base 50)    
Moisture  
Dew Point 66 °F    
Average Humidity 75    
Maximum Humidity 96    
Minimum Humidity 54    
Precipitation  
Precipitation 0.00 in - - ()
Sea Level Pressure  
Sea Level Pressure 30.05 in    
Wind  
Wind Speed 3 mph (ENE)    
Max Wind Speed 10 mph    
Max Gust Speed -    
Visibility 10 miles    
Events      
Averages and records for this station are not official NWS values.
T = Trace of Precipitation, MM = Missing Value Source: NWS Daily Summary

Daily Weather History Graph

Daily Weather History Graph

Search for Another Location

Airport:

Trip Planner

Search our weather history database for the weather conditions in past years. The results will help you decide how hot, cold, wet, or windy it might be!

Date:

Astronomy

Sep. 02, 2011 Rise Set
Actual Time 6:40 AM EDT 7:32 PM EDT
Civil Twilight 6:14 AM EDT 7:57 PM EDT
Nautical Twilight 5:43 AM EDT 8:28 PM EDT
Astronomical Twilight 5:12 AM EDT 8:59 PM EDT
Moon 11:52 AM EDT (9/2) 10:23 PM EDT (9/2)
Length of Visible Light 13h 43m
Length of Day
12h 52m
Waxing Crescent, 27% of the Moon is Illuminated
Sep 2
Waxing Crescent
Sep 4
First Quarter
Sep 12
Full
Sep 20
Last Quarter
Sep 27
New

Hourly Weather History & Observations

Time (EDT) Temp. Heat Index Dew Point Humidity Pressure Visibility Wind Dir Wind Speed Gust Speed Precip Events Conditions
12:56 AM 69.1 °F - 64.9 °F 87% 30.08 in 10.0 mi Calm Calm - N/A   Clear
1:56 AM 69.1 °F - 64.9 °F 87% 30.06 in 10.0 mi Calm Calm - N/A   Clear
2:56 AM 68.0 °F - 64.9 °F 90% 30.06 in 10.0 mi NNE 4.6 mph - N/A   Clear
3:56 AM 68.0 °F - 64.9 °F 90% 30.05 in 10.0 mi NE 4.6 mph - N/A   Clear
4:56 AM 68.0 °F - 66.0 °F 93% 30.05 in 10.0 mi NE 3.5 mph - N/A   Clear
5:56 AM 68.0 °F - 66.9 °F 96% 30.05 in 10.0 mi Calm Calm - N/A   Clear
6:56 AM 68.0 °F - 66.9 °F 96% 30.06 in 8.0 mi Calm Calm - N/A   Clear
8:56 AM 73.9 °F - 70.0 °F 87% 30.06 in 10.0 mi North 3.5 mph - N/A   Partly Cloudy
10:56 AM 82.0 °F 85.5 °F 69.1 °F 65% 30.08 in 10.0 mi Variable 4.6 mph - N/A   Partly Cloudy
11:56 AM 82.0 °F 84.5 °F 66.9 °F 60% 30.07 in 10.0 mi ESE 6.9 mph - N/A   Clear
12:56 PM 82.0 °F 84.1 °F 66.0 °F 58% 30.06 in 10.0 mi ESE 8.1 mph - N/A   Partly Cloudy
1:56 PM 82.0 °F 84.1 °F 66.0 °F 58% 30.06 in 10.0 mi ESE 5.8 mph - N/A   Clear
2:56 PM 82.9 °F 84.6 °F 64.9 °F 54% 30.03 in 10.0 mi SE 10.4 mph - N/A   Clear
3:56 PM 82.0 °F 83.8 °F 64.9 °F 56% 30.01 in 10.0 mi East 10.4 mph - N/A   Clear
4:56 PM 81.0 °F 82.2 °F 63.0 °F 54% 30.01 in 10.0 mi East 8.1 mph - N/A   Clear
6:56 PM 78.1 °F - 64.0 °F 62% 30.02 in 10.0 mi East 5.8 mph - N/A   Overcast
7:56 PM 75.0 °F - 63.0 °F 66% 30.03 in 10.0 mi ENE 3.5 mph - N/A   Clear
8:56 PM 75.0 °F - 64.9 °F 71% 30.04 in 10.0 mi Calm Calm - N/A   Overcast
9:56 PM 73.9 °F - 66.9 °F 79% 30.04 in 10.0 mi Calm Calm - N/A   Overcast
10:56 PM 73.9 °F - 68.0 °F 82% 30.05 in 10.0 mi Calm Calm - N/A   Overcast
11:56 PM 73.0 °F - 66.9 °F 81% 30.05 in 10.0 mi NNE 3.5 mph - N/A   Mostly Cloudy